Weather in Marivka

Ukraine / Dnipropetrovsk Region     47°36′54″N   34°37′14″E
temp.,
°C
wind,
m/s
gust,
m/s
humid.,
%
clouds,
%
prec.,
mm/h
press.,
hPa
HPBL,
m
8 may, sat
sat800:00+15sse71463100 0.0 1013426
03:00+14s61067100 0.0 1011310
06:00+14sse5974100 0.1 1010285
09:00+15sse5778100 0.7 1010299
12:00+18sw71265100 0.1 1009804
15:00+16wnw9982100 0.1 1009704
18:00+11nnw111387100 1.6 1011624
21:00+12nnw81271100 1.8 10131079
9 may, sun
sun900:00+10nnw91375100 0.0 1015961
03:00+8nnw81375100 0.0 1017971
06:00+7nw81284100 0.0 1019717
09:00+10nnw911615 0.0 10211244
12:00+13nnw911445 0.0 10221968
15:00+15nnw91140100 0.0 10222705
18:00+14nnw910456 0.0 10242113
21:00+12nnw695720 0.1 1026825
10 may, mon
mon1000:00+10nnw68645 0.1 1027319
03:00+9n57662 0.1 1027236
06:00+8n58680 0.0 1028257
09:00+12n67540 0.0 10281057
12:00+14n57415 0.0 10272031
15:00+16n673993 0.0 10252363
18:00+16nnw8844100 0.0 10242115
21:00+13nnw71155100 0.0 1023855
11 may, tue
tue1100:00+12nnw8126372 0.0 1021573
03:00+11nnw91365100 0.0 1020650
06:00+10n91375100 0.5 1018690
09:00+12n71072100 0.7 1018648
12:00+12n7877100 0.1 1017883
15:00+13nne7981100 0.7 1017931
18:00+13ne910587 0.2 10171053
21:00+11nne587296 0.2 1016774
12 may, wed
wed1200:00+9n5783100 0.4 1014623
03:00+9nne3382100 1.0 1013367
06:00+8sse6790100 0.5 1012484
09:00+10se677769 1.3 1013790
12:00+14s6855100 0.7 10131883
15:00+14ssw575994 0.8 10131326
18:00+15ssw345679 0.0 1013738
21:00+12sse5775100 0.1 1014275